Погода в Петрозаводске

Хотите узнать прогноз погоды в Петрозаводске? Тогда Вам сюда: Погода в Петрозаводске

Поиск расширенной информации на нашем сайте:

Полезная информация:

Новости сайта



14.11.2019
Обновлён Долгосрочный прогноз погоды по России и другим странам хСССР на ноябрь-декабрь 2019 года.
Опубликованы прогностические карты: Предварительный прогноз на декабрь 2019 года, Предварительный прогноз на январь 2020 года, Предварительная схема синоптических процессов на декабрь 2019 г..

11.11.2019
Обновлены Долгосрочный прогноз погоды по России и другим странам хСССР на ноябрь-декабрь 2019 года и Предварительный прогноз на зиму 2019/2020 годов

04.11.2019
Опубликован Долгосрочный прогноз погоды по России и другим странам хСССР на ноябрь 2019 года
Сравнение прогнозируемой аномалии приземной температуры воздуха на ноябрь 2019 года по разным моделям
Предварительный прогноз на зиму 2019/2020 года




Погода в Петрозаводске - сегодня

Время (UTC), дата Ветер
(°,м/с) 
Видим.   Явления Облачность Т
(°С)
Тd
(°С)
f(%) Тe
(°С)
Pmin
(гПа)
dP
(гПа)
Po
(мм)
O2
(г/м3)
Тmin Tmax R s Состояние
почвы
00 20.11.19 120 (ЮВ) 20000 м  {морось}  10/10 150 м 
[St]
+2.2 +1.8 97 1034.6  0.3  766  306           
03 20.11.19 130 (ЮВ) 20000 м    10/10 180 м 
[St]
+2.8 +2.1 95 +1  1034.9  0.3  766  305  +2.1    0.3     
06 20.11.19 140 (ЮВ) 20000 м    10/10 180 м 
[St]
+3.4 +2.7 95 +3  1035.2  0.3  766  304  +2.1    0.3     
09 20.11.19 160 (Ю) 20000 м    10/10 180 м 
[St]
+3.7 +2.8 94 +2  1036.4  1.2  767  304           
12 20.11.19 160 (Ю) 12000 м  слаб. морось  10/10 210 м 
[St]
+3.3 +2.6 95 +2  1036.5  0.1  767  305           
15 20.11.19 210 (ЮЗ) 20000 м  в посл. час дождь{морось}  10/8 540 м средняя 
[Sc|Ac As]
+3.6 +2.5 92 +2  1037.7  1.2  768  305         
18 20.11.19 220 (ЮЗ) 20000 м  {дождь}  10/3 600 м средняя 
[Sc|Ac As]
+2.9 +1.4 90 +2  1037.6  -0.1  768  306    +3.7     
21 20.11.19 220 (ЮЗ) 20000 м    10/4 600 м средняя 
[Sc|Ac As]
+2.6 +1.2 90 +1  1038.4  0.7  768  307           
00 21.11.19 200 (Ю) 20000 м    10/6 600 м средняя 
[Sc|Ac As]
+2.7 +1.4 91 +2  1039.1  0.7  769  307           
03 21.11.19 210 (ЮЗ) 20000 м  в посл. час дождь  10/8 800 м средняя 
[Sc|Ac As]
+2.7 +2.1 96 +2  1039.1  769  306  +2.3    0.3     
06 21.11.19 160 (Ю) 10 км  слаб. дождь  10/10 400 м 
[Sc|Ac As]
+2.3 +1.9 97 +3  1039.4  0.3  769  307  +2.2    0.3     
09 21.11.19 140 (ЮВ) 3500 м  слаб. дождь  10/10 300 м 
[Sc]
+2.6 +2.2 97 +3  1039.5  0.1  769  307           
12 21.11.19 210 (ЮЗ) 30000 м  {дождь}  10/10 400 м 
[Sc]
+2.9 +2.1 94 +2  1038.8  -0.6  769  306           
15 21.11.19 200 (Ю) 20000 м  {дождь}  10/10 360 м 
[Sc]
+2.5 +1.8 95 +2  1039  0.1  769  307      0.4     
18 21.11.19 200 (Ю) 20000 м  {дождь}  9/0 средняя 
[Ac trans]
+1.5 +0.5 93 1038.5  -0.5  768  308    +3.2  0.4     
21 21.11.19 240 (ЮЗ) 20000 м    8/0 средняя 
[Ac trans]
+0.2 -0.9 92 -2  1038.8  0.2  769  310           
00 22.11.19 240 (ЮЗ) 20000 м    10/8 400 м средняя 
[Sc|Ac und]
-0.5 -1.9 90 -1  1038.2  -0.6  768  310           
03 22.11.19 250 (З) 20000 м    10/8 300 м средняя 
[Sc|Ac und]
-0.9 -2.3 90 -2  1037.7  -0.5  768  311  -0.9         
06 22.11.19 200 (Ю) 20000 м    10/8 330 м средняя 
[Sc|As trans]
-1.7 -3.3 89 -3  1037.9  0.1  768  312  -1.8         
09 22.11.19 200 (Ю) 26000 м    10/6 400 м средняя 
[Sc|Ac und]
-2.6 -4.5 87 -5  1037.8  -0.1  768  313           
12 22.11.19 230 (ЮЗ) 22000 м    10/6 420 м средняя 
[Sc|Ac und]
-3.3 -5.6 84 -3  1037  -0.9  767  313           
15 22.11.19 200 (Ю) 20000 м    10/8 360 м средняя 
[Sc|Ac und]
-4.5 -6.3 87 -6  1036.8  -0.2  767  315           
18 22.11.19 тихо ()   20000 м    ясно 
-7.6 -8.7 92 -8  1037.1  0.1  767  319    -1.7       
21 22.11.19 210 (ЮЗ) 20000 м    10/8 400 м средняя 
[Sc|Ac und]
-5.1 -6.7 89 -5  1036.6  -0.3  767  316           
00 23.11.19 180 (Ю) 20000 м    ясно 
-7.6 -9.7 85 -9  1036.7  -0.1  767  319           
Время (UTC), дата Ветер
(°,м/с) 
Видим.   Явления Облачность Т
(°С)
Тd
(°С)
f(%) Тe
(°С)
Pmin
(гПа)
dP
(гПа)
Po
(мм)
O2
(г/м3)
Тmin Tmax R s Состояние
почвы

Для получения пояснительной информации подведите курсор к названию столбца.

ПОГОДА в Петрозаводске - архив

Всё, что Вы хотите узнать о погоде в Петрозаводске - удобно и подробно!

Выберите нужную дату (начиная с 1 января 2019* года) и нажмите кнопку "Найти".
Будут отображены архивные сводки погоды по пункту Петрозаводск, начиная с указанной даты.


Отображать данные в формате CSV (для использования в таблицах Excel)


Внимание! Наш архив погоды предназначен исключительно для личного некоммерческого использования в познавательных целях. Если Вам необходимы официальные справки о состоянии погоды (для производственных, юридических, коммерческих и т.п. целей), обращайтесь в органы Росгидромета.

*Примечание: данная дата относится к архиву по метеостанциям СССР (Россия, СНГ, Балтия).
Архив по метеостанциям Зарубежной Европы и Азии (кроме Китая) хранится 10 дней, по другим регионам земного шара (Китай, Африка, Америка, Австралия, Океания) - 1 день.

Петрозаводск - район местоположения метеостанции


Название, широта, долгота, высота метеостанции:
Петрозаводск 61.8°ш. 34.3°д. 110 м над ур. моря [Российская Федерация]

Дополнительная информация

В oтличие oт бoльшинства пoгoдных сайтoв мы публикуем пoдрoбную метеoинфoрмацию в детальнoм прoфессиoнальнoм фoрмате.

Характеристики температуры и влажнoсти вoздуха измеряются на высoте 2 м в тени вдали oт зданий и деревьев.
Скoрoсть ветра измеряется на высoте 10 м (на урoвне рoста челoвека скoрoсть ветра ниже в 1.5-2 раза). Если метеoстанция нахoдится в гoрoде или в лесу, тo скoрoсть ветра занижена на 2-4 м/с пo сравнению с oткрытым местoм. Скoрoсть ветра над акватoриями крупных рек и oзёр, а также на вершинах хoлмoв на 2-5 м/с выше, чем в oбычных услoвиях.
Атмoсфернoе давление в разных тoчках местнoсти мoжет значительнo oтличаться oт давления на метеoстанции, в зависимoсти oт услoвий рельефа (при пoдъёме на 10 м давление пoнижается примернo на 1 мм рт.ст.).